Location: Unspecified
(0.0000°N, 0.0000°E)
Time: 16:43:09
(UTC+00:00)

Tiangong - Visible Passes

Search period start: 26 May 2022 00:00
Search period end: 05 June 2022 00:00
Orbit: 386 x 388 km, 41.5° (Epoch: 26 May)

Date Brightness Start Highest point End Pass type
(mag) Time Alt. Az. Time Alt. Az. Time Alt. Az.
26 May 1.3 18:42:53 10° NW 18:46:00 57° NE 18:47:59 20° ESE visible
27 May 3.4 19:21:44 10° W 19:23:51 16° SW 19:24:35 15° SSW visible
28 May 3.8 05:15:57 10° S 05:17:40 14° SE 05:19:22 10° ESE visible
28 May 2.1 18:21:53 10° WNW 18:24:53 41° SW 18:27:54 10° SSE visible
30 May 2.3 04:54:32 18° SSW 04:56:25 36° SE 04:59:22 10° ENE visible
31 May 4.2 03:58:40 12° ESE 03:58:40 12° ESE 03:59:13 10° E visible
31 May 2.6 05:31:27 10° W 05:34:03 23° NW 05:36:39 10° NNE visible
01 Jun 1.1 04:34:59 65° NW 04:34:59 65° NW 04:38:04 10° NE visible
03 Jun 3.8 04:15:01 14° N 04:15:01 14° N 04:15:43 10° N visible
